Powrót do katalogu

TITAN 3C TRANSTAGE DEB

LostMEO
NORAD 43285·DEBRIS·🇺🇸 United States

Wystrzelony Feb 9, 1969 z Cape Canaveral Space Force Station

Loading…

Następne Przeloty (najbliższe 24 godziny)

TLE

NieaktualneSource: Space-Track

Epoka: Jun 6, 2024, 14:54 UTC

1 43285U 69013F   24158.62128332 -.00000128  00000-0  00000-0 0  9990
2 43285   0.8793 238.7068 0365983 344.4646 133.8754  0.93356802 21189

Śledź TITAN 3C TRANSTAGE DEB w czasie rzeczywistym z AllMySat

Download on the App Store